Location: Beuvrequen
(50.8014°N, 1.6652°E)
Time: 14:24:10
(UTC+00:00)

Lacrosse 4 Rocket - Pass Details

Date: 02 June 2022
Orbit: 541 x 611 km, 68.0° (Epoch: 30 June)

Event Time Altitude Azimuth Distance (km) Brightness Sun altitude
Exits shadow 01:54:38 11° 168° (SSE) 1,854 3.6 -12.1°
Maximum altitude 01:58:02 26° 112° (ESE) 1,148 3.0 -11.9°
Drops below altitude 10° 02:01:31 10° 56° (NE) 1,865 5.1 -11.6°
Sets 02:03:58 0° 44° (NE) 2,754 6.7 -11.4°
